Volver al catálogo

ATLAS 5 CENTAUR DEB

ActivoHEO
NORAD 49342·DEBRIS·🇺🇸 United States

Lanzado Oct 17, 2018 desde Cape Canaveral Space Force Station

Loading…

Próximos Pases (próximas 24 horas)

TLE

ActualizadoSource: Space-Track

Época: Sep 6, 2026, 09:46 UTC

1 49342U 18079ET  26249.40722669 -.00000186  00000-0  00000-0 0  9992
2 49342  13.4378  18.1464 4763823 352.4093   2.2607  1.84615685 33864

Sigue ATLAS 5 CENTAUR DEB en tiempo real con AllMySat

Download on the App Store